QPF
0.00 0.00 0.00 0.00 0.00 0.00 0.00 0.00 0.00 0.00 0.00 0.00 0.00 0.00 0.00 0.00 0.00 0.00 0.00 0.00 0.00 0.00 0.01 0.02 0.03 0.02 0.02 0.03 0.02 0.02 0.02 0.02 0.01 0.01 0.01 0.01 0.01 0.00 0.01 0.01 0.01 0.01 0.02 0.03 0.01 0.01 0.01 0.01 0.01
0.00 0.00 0.00 0.00 0.00 0.00 0.00 0.00 0.00 0.00 0.00 0.00 0.00 0.00 0.00 0.00 0.00 0.00 0.00 0.00 0.00 0.00 0.01 0.01 0.03 0.03 0.02 0.02 0.02 0.02 0.01 0.01 0.01 0.01 0.01 0.01 0.01 0.01 0.00 0.01 0.01 0.01 0.02 0.01 0.01 0.00 0.00 0.01 0.01
0.00 0.00 0.01 0.01 0.00 0.00 0.00 0.00 0.00 0.00 0.00 0.00 0.00 0.00 0.00 0.00 0.00 0.00 0.00 0.00 0.00 0.00 0.01 0.02 0.03 0.03 0.02 0.02 0.02 0.02 0.01 0.01 0.01 0.01 0.01 0.01 0.01 0.01 0.01 0.01 0.01 0.01 0.01 0.00 0.00 0.00 0.00 0.00 0.01
0.00 0.01 0.01 0.01 0.00 0.00 0.00 0.00 0.00 0.00 0.00 0.00 0.00 0.00 0.00 0.00 0.00 0.00 0.00 0.00 0.00 0.00 0.01 0.02 0.03 0.03 0.03 0.02 0.02 0.02 0.02 0.01 0.01 0.02 0.01 0.01 0.01 0.01 0.01 0.01 0.01 0.01 0.01 0.01 0.00 0.00 0.01 0.01 0.01
0.01 0.01 0.01 0.00 0.00 0.00 0.00 0.00 0.00 0.00 0.00 0.00 0.00 0.00 0.00 0.00 0.00 0.00 0.01 0.00 0.00 0.00 0.01 0.02 0.03 0.04 0.03 0.03 0.03 0.03 0.02 0.02 0.02 0.02 0.01 0.02 0.01 0.01 0.01 0.01 0.01 0.01 0.01 0.01 0.01 0.01 0.01 0.01 0.00
0.01 0.01 0.00 0.00 0.00 0.00 0.00 0.00 0.00 0.00 0.00 0.00 0.00 0.00 0.00 0.01 0.00 0.01 0.01 0.00 0.00 0.01 0.02 0.03 0.04 0.05 0.03 0.02 0.02 0.02 0.02 0.02 0.02 0.02 0.02 0.02 0.02 0.01 0.01 0.01 0.01 0.01 0.01 0.01 0.02 0.02 0.01 0.01 0.00
0.01 0.01 0.00 0.00 0.00 0.00 0.00 0.00 0.00 0.00 0.00 0.00 0.00 0.00 0.00 0.01 0.01 0.01 0.01 0.01 0.01 0.02 0.02 0.03 0.04 0.06 0.05 0.03 0.03 0.03 0.03 0.02 0.03 0.02 0.01 0.01 0.02 0.02 0.02 0.02 0.02 0.01 0.01 0.01 0.01 0.01 0.01 0.01 0.00
0.02 0.02 0.00 0.00 0.00 0.00 0.00 0.00 0.00 0.00 0.00 0.00 0.00 0.00 0.00 0.01 0.01 0.02 0.03 0.03 0.03 0.02 0.03 0.04 0.03 0.05 0.05 0.03 0.03 0.03 0.03 0.03 0.03 0.03 0.01 0.01 0.01 0.01 0.02 0.03 0.02 0.01 0.01 0.01 0.01 0.01 0.01 0.01 0.00
0.02 0.02 0.01 0.00 0.00 0.00 0.00 0.00 0.00 0.00 0.00 0.00 0.00 0.00 0.00 0.00 0.02 0.03 0.03 0.03 0.03 0.03 0.04 0.05 0.05 0.04 0.03 0.02 0.02 0.03 0.04 0.04 0.03 0.03 0.03 0.02 0.02 0.01 0.01 0.01 0.01 0.01 0.01 0.01 0.00 0.00 0.00 0.00 0.00
0.03 0.02 0.01 0.00 0.00 0.00 0.00 0.00 0.00 0.00 0.00 0.00 0.00 0.00 0.00 0.00 0.01 0.02 0.03 0.04 0.04 0.05 0.05 0.05 0.06 0.05 0.03 0.03 0.03 0.02 0.02 0.02 0.02 0.02 0.02 0.02 0.02 0.02 0.02 0.01 0.01 0.02 0.02 0.01 0.01 0.00 0.00 0.00 0.00
0.02 0.02 0.01 0.00 0.00 0.00 0.00 0.00 0.00 0.00 0.00 0.00 0.00 0.00 0.00 0.00 0.01 0.01 0.02 0.03 0.05 0.05 0.06 0.06 0.06 0.06 0.05 0.03 0.02 0.02 0.01 0.01 0.00 0.00 0.00 0.01 0.01 0.01 0.01 0.01 0.02 0.02 0.02 0.02 0.01 0.01 0.00 0.00 0.00
0.01 0.01 0.01 0.00 0.00 0.01 0.00 0.00 0.00 0.00 0.00 0.00 0.00 0.00 0.00 0.00 0.01 0.01 0.01 0.02 0.04 0.05 0.05 0.05 0.06 0.07 0.07 0.04 0.03 0.01 0.01 0.00 0.00 0.00 0.00 0.00 0.00 0.00 0.01 0.01 0.01 0.01 0.01 0.01 0.01 0.01 0.00 0.00 0.00
0.01 0.01 0.01 0.01 0.00 0.01 0.01 0.00 0.00 0.00 0.00 0.00 0.00 0.00 0.01 0.00 0.01 0.01 0.01 0.01 0.03 0.04 0.05 0.06 0.06 0.06 0.08 0.07 0.04 0.03 0.02 0.01 0.01 0.00 0.00 0.01 0.01 0.01 0.01 0.01 0.01 0.01 0.01 0.01 0.01 0.01 0.01 0.01 0.00
0.01 0.00 0.00 0.00 0.01 0.01 0.01 0.01 0.00 0.00 0.00 0.00 0.01 0.01 0.02 0.01 0.01 0.02 0.01 0.01 0.02 0.04 0.04 0.06 0.06 0.06 0.07 0.06 0.05 0.04 0.03 0.02 0.02 0.02 0.02 0.01 0.01 0.01 0.01 0.02 0.02 0.02 0.01 0.02 0.02 0.02 0.02 0.01 0.01
0.00 0.01 0.01 0.01 0.01 0.01 0.01 0.01 0.00 0.00 0.00 0.00 0.01 0.02 0.03 0.02 0.02 0.02 0.02 0.02 0.03 0.03 0.03 0.04 0.06 0.06 0.06 0.07 0.05 0.06 0.05 0.04 0.03 0.02 0.02 0.01 0.01 0.01 0.01 0.01 0.01 0.01 0.01 0.02 0.02 0.02 0.03 0.03 0.03
0.01 0.01 0.01 0.00 0.01 0.01 0.01 0.01 0.00 0.01 0.00 0.00 0.01 0.02 0.03 0.03 0.02 0.02 0.02 0.03 0.04 0.03 0.03 0.03 0.04 0.06 0.07 0.07 0.05 0.06 0.07 0.05 0.03 0.02 0.01 0.01 0.00 0.00 0.00 0.01 0.01 0.01 0.01 0.01 0.02 0.02 0.04 0.04 0.03
0.02 0.01 0.01 0.00 0.01 0.01 0.01 0.01 0.00 0.00 0.00 0.00 0.01 0.02 0.02 0.03 0.03 0.03 0.03 0.02 0.03 0.03 0.04 0.04 0.04 0.04 0.06 0.08 0.08 0.06 0.07 0.09 0.07 0.04 0.03 0.01 0.01 0.00 0.00 0.02 0.02 0.01 0.01 0.01 0.02 0.02 0.03 0.04 0.06
0.01 0.00 0.00 0.01 0.01 0.01 0.01 0.01 0.00 0.00 0.00 0.00 0.01 0.02 0.02 0.02 0.02 0.03 0.03 0.03 0.03 0.04 0.05 0.05 0.06 0.06 0.07 0.09 0.09 0.07 0.07 0.09 0.10 0.08 0.04 0.02 0.01 0.00 0.00 0.02 0.02 0.02 0.01 0.01 0.01 0.01 0.01 0.01 0.02
0.01 0.01 0.01 0.01 0.01 0.01 0.01 0.01 0.00 0.00 0.00 0.00 0.00 0.01 0.02 0.01 0.02 0.03 0.03 0.03 0.03 0.04 0.04 0.04 0.05 0.05 0.05 0.07 0.07 0.07 0.06 0.06 0.09 0.08 0.04 0.03 0.02 0.02 0.02 0.03 0.03 0.02 0.01 0.01 0.01 0.01 0.01 0.00 0.00
0.02 0.02 0.01 0.00 0.01 0.01 0.01 0.01 0.00 0.00 0.00 0.00 0.00 0.01 0.01 0.01 0.03 0.04 0.04 0.04 0.03 0.03 0.03 0.03 0.04 0.05 0.06 0.06 0.07 0.08 0.10 0.08 0.10 0.08 0.05 0.04 0.03 0.02 0.02 0.02 0.02 0.01 0.01 0.01 0.01 0.01 0.01 0.01 0.00
0.03 0.01 0.01 0.01 0.02 0.02 0.02 0.01 0.00 0.00 0.00 0.00 0.00 0.00 0.01 0.01 0.02 0.03 0.05 0.04 0.04 0.02 0.02 0.02 0.03 0.04 0.06 0.07 0.08 0.08 0.10 0.10 0.08 0.09 0.08 0.07 0.06 0.06 0.06 0.04 0.04 0.03 0.03 0.02 0.01 0.01 0.01 0.01 0.00
0.02 0.01 0.01 0.03 0.04 0.03 0.02 0.02 0.01 0.01 0.00 0.00 0.00 0.00 0.01 0.01 0.01 0.03 0.05 0.04 0.04 0.03 0.02 0.02 0.02 0.03 0.04 0.06 0.07 0.07 0.07 0.09 0.07 0.05 0.05 0.04 0.03 0.03 0.04 0.04 0.04 0.03 0.03 0.02 0.01 0.01 0.01 0.00 0.00
0.02 0.01 0.01 0.02 0.04 0.03 0.03 0.03 0.01 0.01 0.01 0.01 0.00 0.01 0.01 0.01 0.01 0.01 0.03 0.04 0.05 0.04 0.04 0.03 0.03 0.03 0.03 0.04 0.05 0.06 0.06 0.08 0.09 0.06 0.05 0.05 0.03 0.02 0.02 0.02 0.02 0.02 0.02 0.02 0.02 0.01 0.01 0.00 0.00
0.03 0.03 0.03 0.03 0.05 0.05 0.03 0.03 0.02 0.02 0.03 0.03 0.01 0.01 0.01 0.01 0.01 0.01 0.02 0.04 0.06 0.07 0.08 0.07 0.05 0.04 0.04 0.04 0.05 0.05 0.05 0.07 0.08 0.07 0.06 0.07 0.06 0.05 0.03 0.03 0.02 0.02 0.02 0.02 0.01 0.01 0.01 0.01 0.01
0.05 0.07 0.10 0.11 0.10 0.06 0.02 0.02 0.02 0.02 0.03 0.04 0.04 0.04 0.02 0.01 0.02 0.01 0.01 0.03 0.04 0.06 0.07 0.08 0.07 0.06 0.05 0.05 0.05 0.05 0.05 0.05 0.07 0.07 0.07 0.07 0.07 0.05 0.04 0.03 0.02 0.02 0.02 0.02 0.02 0.01 0.01 0.01 0.01
0.05 0.06 0.08 0.08 0.06 0.05 0.03 0.02 0.01 0.01 0.01 0.02 0.04 0.04 0.03 0.02 0.03 0.03 0.02 0.02 0.03 0.04 0.05 0.07 0.08 0.07 0.06 0.06 0.06 0.06 0.05 0.05 0.06 0.07 0.07 0.05 0.06 0.08 0.06 0.04 0.03 0.02 0.01 0.01 0.01 0.01 0.01 0.01 0.01
0.05 0.05 0.04 0.04 0.03 0.04 0.03 0.02 0.01 0.00 0.00 0.01 0.02 0.03 0.04 0.03 0.03 0.03 0.03 0.02 0.02 0.03 0.03 0.04 0.06 0.07 0.07 0.06 0.06 0.06 0.05 0.05 0.06 0.07 0.07 0.07 0.06 0.07 0.07 0.05 0.04 0.02 0.01 0.01 0.01 0.01 0.01 0.01 0.01
0.04 0.05 0.04 0.04 0.04 0.04 0.02 0.01 0.01 0.01 0.01 0.01 0.01 0.03 0.04 0.04 0.02 0.02 0.02 0.03 0.02 0.02 0.02 0.04 0.04 0.07 0.09 0.08 0.07 0.06 0.06 0.05 0.07 0.07 0.07 0.06 0.06 0.06 0.05 0.04 0.03 0.02 0.01 0.01 0.01 0.01 0.01 0.01 0.01
0.02 0.05 0.06 0.04 0.04 0.03 0.02 0.01 0.02 0.02 0.02 0.02 0.02 0.02 0.04 0.05 0.04 0.03 0.02 0.02 0.02 0.02 0.02 0.03 0.04 0.05 0.08 0.10 0.09 0.07 0.06 0.04 0.05 0.08 0.08 0.07 0.07 0.06 0.05 0.04 0.03 0.03 0.02 0.02 0.02 0.02 0.02 0.02 0.02
0.02 0.03 0.05 0.05 0.04 0.03 0.02 0.01 0.01 0.01 0.02 0.02 0.01 0.01 0.02 0.03 0.03 0.02 0.02 0.03 0.02 0.02 0.02 0.02 0.03 0.05 0.07 0.07 0.08 0.08 0.07 0.06 0.05 0.06 0.07 0.07 0.06 0.06 0.06 0.05 0.04 0.03 0.02 0.02 0.02 0.02 0.02 0.02 0.02
MSLP
1012.35 1012.98 1013.78 1014.60 1015.33 1015.86 1016.17 1016.28 1016.26 1016.20 1016.20 1016.30 1016.53 1016.84 1017.17 1017.43 1017.55 1017.49 1017.25 1016.88 1016.46 1016.08 1015.79 1015.66 1015.68 1015.83 1016.07 1016.34 1016.59 1016.82 1017.01 1017.18 1017.36 1017.57 1017.82 1018.11 1018.42 1018.71 1018.96 1019.14 1019.25 1019.28 1019.27 1019.21 1019.15 1019.10 1019.06 1019.04 1019.04
1012.78 1013.52 1014.38 1015.21 1015.88 1016.32 1016.50 1016.45 1016.26 1016.04 1015.89 1015.88 1016.02 1016.29 1016.59 1016.87 1017.03 1017.03 1016.87 1016.61 1016.29 1016.01 1015.82 1015.77 1015.87 1016.08 1016.36 1016.67 1016.96 1017.22 1017.45 1017.65 1017.85 1018.07 1018.31 1018.57 1018.83 1019.08 1019.28 1019.42 1019.51 1019.54 1019.54 1019.51 1019.48 1019.46 1019.44 1019.43 1019.43
1013.34 1014.13 1014.98 1015.75 1016.32 1016.62 1016.65 1016.46 1016.14 1015.81 1015.58 1015.51 1015.61 1015.85 1016.15 1016.44 1016.63 1016.68 1016.59 1016.40 1016.18 1015.99 1015.90 1015.93 1016.09 1016.36 1016.69 1017.03 1017.36 1017.66 1017.91 1018.13 1018.35 1018.56 1018.77 1018.99 1019.20 1019.38 1019.52 1019.62 1019.68 1019.71 1019.74 1019.76 1019.78 1019.80 1019.83 1019.85 1019.85
1013.98 1014.78 1015.57 1016.22 1016.65 1016.79 1016.68 1016.37 1015.96 1015.58 1015.33 1015.25 1015.35 1015.60 1015.91 1016.20 1016.41 1016.49 1016.45 1016.33 1016.18 1016.08 1016.06 1016.16 1016.38 1016.69 1017.05 1017.42 1017.76 1018.07 1018.34 1018.57 1018.78 1018.99 1019.18 1019.35 1019.50 1019.62 1019.71 1019.77 1019.82 1019.86 1019.92 1019.99 1020.08 1020.16 1020.24 1020.30 1020.33
1014.66 1015.42 1016.10 1016.61 1016.87 1016.86 1016.62 1016.22 1015.78 1015.41 1015.18 1015.14 1015.28 1015.55 1015.88 1016.18 1016.40 1016.50 1016.49 1016.42 1016.33 1016.30 1016.35 1016.50 1016.76 1017.08 1017.44 1017.80 1018.13 1018.43 1018.69 1018.92 1019.13 1019.32 1019.50 1019.65 1019.76 1019.85 1019.90 1019.94 1019.98 1020.04 1020.13 1020.26 1020.40 1020.55 1020.67 1020.77 1020.81
1015.29 1015.97 1016.53 1016.88 1016.99 1016.84 1016.51 1016.08 1015.65 1015.32 1015.17 1015.21 1015.41 1015.72 1016.06 1016.36 1016.57 1016.68 1016.69 1016.66 1016.63 1016.65 1016.75 1016.94 1017.21 1017.52 1017.85 1018.17 1018.46 1018.72 1018.95 1019.17 1019.38 1019.57 1019.75 1019.91 1020.02 1020.09 1020.14 1020.17 1020.22 1020.29 1020.41 1020.57 1020.75 1020.94 1021.10 1021.22 1021.28
1015.78 1016.38 1016.81 1017.02 1016.99 1016.75 1016.37 1015.95 1015.58 1015.34 1015.29 1015.41 1015.68 1016.02 1016.37 1016.67 1016.87 1016.97 1017.00 1017.00 1017.02 1017.09 1017.23 1017.44 1017.71 1017.99 1018.27 1018.52 1018.75 1018.95 1019.14 1019.34 1019.55 1019.76 1019.97 1020.15 1020.29 1020.39 1020.45 1020.49 1020.54 1020.62 1020.75 1020.92 1021.11 1021.31 1021.49 1021.61 1021.68
1016.08 1016.58 1016.90 1016.99 1016.87 1016.59 1016.21 1015.84 1015.56 1015.44 1015.49 1015.70 1016.02 1016.39 1016.74 1017.01 1017.19 1017.29 1017.33 1017.36 1017.42 1017.54 1017.72 1017.95 1018.21 1018.46 1018.67 1018.85 1019.00 1019.14 1019.29 1019.47 1019.69 1019.93 1020.18 1020.41 1020.60 1020.74 1020.83 1020.88 1020.94 1021.01 1021.12 1021.27 1021.45 1021.63 1021.80 1021.91 1021.97
1016.18 1016.59 1016.82 1016.83 1016.66 1016.37 1016.04 1015.75 1015.58 1015.57 1015.72 1016.01 1016.37 1016.74 1017.07 1017.31 1017.46 1017.55 1017.59 1017.65 1017.76 1017.93 1018.15 1018.40 1018.65 1018.87 1019.03 1019.15 1019.23 1019.31 1019.43 1019.59 1019.82 1020.10 1020.40 1020.68 1020.93 1021.11 1021.23 1021.30 1021.35 1021.40 1021.48 1021.59 1021.72 1021.87 1022.00 1022.10 1022.16
1016.11 1016.45 1016.60 1016.57 1016.40 1016.14 1015.87 1015.68 1015.62 1015.71 1015.95 1016.28 1016.65 1017.01 1017.30 1017.50 1017.62 1017.68 1017.74 1017.83 1017.97 1018.19 1018.45 1018.73 1018.98 1019.19 1019.32 1019.39 1019.43 1019.48 1019.57 1019.73 1019.97 1020.28 1020.62 1020.95 1021.24 1021.46 1021.60 1021.68 1021.72 1021.74 1021.77 1021.83 1021.91 1022.01 1022.11 1022.19 1022.24
1015.99 1016.25 1016.35 1016.30 1016.14 1015.93 1015.75 1015.65 1015.68 1015.85 1016.14 1016.49 1016.86 1017.18 1017.42 1017.58 1017.66 1017.71 1017.76 1017.87 1018.05 1018.30 1018.59 1018.90 1019.17 1019.37 1019.50 1019.56 1019.59 1019.62 1019.71 1019.87 1020.12 1020.45 1020.81 1021.17 1021.49 1021.73 1021.89 1021.96 1021.99 1021.98 1021.97 1021.99 1022.02 1022.08 1022.15 1022.21 1022.26
1015.90 1016.11 1016.17 1016.12 1015.98 1015.83 1015.71 1015.69 1015.78 1016.00 1016.30 1016.65 1016.99 1017.26 1017.46 1017.57 1017.62 1017.65 1017.70 1017.81 1018.01 1018.27 1018.59 1018.91 1019.19 1019.41 1019.55 1019.63 1019.67 1019.72 1019.81 1019.99 1020.24 1020.57 1020.94 1021.30 1021.62 1021.87 1022.03 1022.11 1022.12 1022.10 1022.07 1022.06 1022.07 1022.10 1022.14 1022.20 1022.25
1015.96 1016.12 1016.16 1016.10 1015.99 1015.88 1015.81 1015.83 1015.96 1016.18 1016.48 1016.80 1017.10 1017.33 1017.49 1017.57 1017.59 1017.60 1017.64 1017.74 1017.92 1018.18 1018.47 1018.79 1019.08 1019.31 1019.47 1019.58 1019.66 1019.74 1019.86 1020.05 1020.30 1020.62 1020.96 1021.30 1021.60 1021.84 1022.00 1022.09 1022.12 1022.11 1022.09 1022.08 1022.08 1022.10 1022.14 1022.19 1022.25
1016.23 1016.35 1016.38 1016.32 1016.23 1016.14 1016.09 1016.12 1016.24 1016.45 1016.71 1016.99 1017.26 1017.47 1017.60 1017.67 1017.68 1017.68 1017.69 1017.76 1017.89 1018.10 1018.34 1018.62 1018.88 1019.10 1019.29 1019.43 1019.55 1019.67 1019.82 1020.01 1020.26 1020.55 1020.86 1021.16 1021.43 1021.65 1021.82 1021.92 1021.98 1022.02 1022.04 1022.06 1022.09 1022.13 1022.18 1022.23 1022.27
1016.69 1016.80 1016.83 1016.78 1016.70 1016.61 1016.56 1016.57 1016.65 1016.82 1017.04 1017.29 1017.53 1017.73 1017.87 1017.95 1017.97 1017.96 1017.95 1017.96 1018.02 1018.13 1018.29 1018.47 1018.67 1018.87 1019.05 1019.21 1019.36 1019.52 1019.69 1019.89 1020.12 1020.37 1020.63 1020.88 1021.12 1021.32 1021.50 1021.64 1021.75 1021.85 1021.95 1022.03 1022.11 1022.18 1022.24 1022.28 1022.32
1017.29 1017.41 1017.44 1017.41 1017.33 1017.24 1017.17 1017.14 1017.19 1017.31 1017.49 1017.72 1017.96 1018.18 1018.35 1018.47 1018.51 1018.51 1018.47 1018.42 1018.38 1018.36 1018.39 1018.46 1018.56 1018.68 1018.83 1018.98 1019.15 1019.32 1019.50 1019.69 1019.89 1020.10 1020.30 1020.51 1020.70 1020.90 1021.08 1021.27 1021.45 1021.63 1021.81 1021.97 1022.12 1022.23 1022.31 1022.34 1022.35
1017.93 1018.08 1018.14 1018.13 1018.06 1017.96 1017.87 1017.81 1017.82 1017.90 1018.06 1018.29 1018.55 1018.82 1019.05 1019.22 1019.32 1019.33 1019.26 1019.14 1018.99 1018.84 1018.72 1018.63 1018.61 1018.63 1018.71 1018.82 1018.97 1019.13 1019.30 1019.46 1019.62 1019.77 1019.92 1020.07 1020.23 1020.41 1020.61 1020.84 1021.09 1021.36 1021.62 1021.87 1022.07 1022.23 1022.32 1022.36 1022.35
1018.51 1018.70 1018.80 1018.82 1018.77 1018.68 1018.58 1018.51 1018.49 1018.56 1018.73 1018.98 1019.29 1019.62 1019.94 1020.19 1020.34 1020.38 1020.29 1020.11 1019.86 1019.57 1019.29 1019.05 1018.87 1018.78 1018.76 1018.80 1018.90 1019.02 1019.15 1019.27 1019.37 1019.46 1019.54 1019.63 1019.75 1019.91 1020.12 1020.38 1020.69 1021.02 1021.35 1021.66 1021.92 1022.12 1022.24 1022.28 1022.25
1018.96 1019.19 1019.33 1019.39 1019.38 1019.32 1019.24 1019.18 1019.18 1019.27 1019.47 1019.76 1020.14 1020.56 1020.96 1021.29 1021.51 1021.58 1021.49 1021.26 1020.92 1020.52 1020.10 1019.71 1019.39 1019.16 1019.03 1018.98 1019.00 1019.05 1019.11 1019.16 1019.19 1019.21 1019.22 1019.24 1019.31 1019.43 1019.63 1019.90 1020.23 1020.59 1020.97 1021.32 1021.63 1021.85 1022.00 1022.06 1022.04
1019.27 1019.51 1019.69 1019.80 1019.83 1019.82 1019.79 1019.78 1019.83 1019.98 1020.24 1020.61 1021.07 1021.57 1022.06 1022.47 1022.75 1022.85 1022.77 1022.51 1022.11 1021.61 1021.08 1020.57 1020.13 1019.78 1019.54 1019.39 1019.31 1019.27 1019.24 1019.20 1019.14 1019.07 1018.99 1018.94 1018.94 1019.01 1019.16 1019.41 1019.72 1020.08 1020.46 1020.83 1021.15 1021.41 1021.58 1021.67 1021.69
1019.46 1019.70 1019.89 1020.03 1020.12 1020.18 1020.23 1020.31 1020.45 1020.70 1021.05 1021.51 1022.06 1022.64 1023.19 1023.66 1023.98 1024.11 1024.03 1023.76 1023.33 1022.78 1022.19 1021.59 1021.07 1020.62 1020.28 1020.02 1019.84 1019.69 1019.56 1019.41 1019.25 1019.08 1018.91 1018.77 1018.69 1018.68 1018.76 1018.94 1019.19 1019.50 1019.85 1020.19 1020.51 1020.78 1020.98 1021.12 1021.20
1019.64 1019.82 1019.99 1020.14 1020.28 1020.42 1020.58 1020.78 1021.05 1021.42 1021.89 1022.46 1023.08 1023.72 1024.32 1024.82 1025.15 1025.29 1025.22 1024.94 1024.50 1023.94 1023.32 1022.70 1022.12 1021.61 1021.19 1020.85 1020.56 1020.31 1020.07 1019.81 1019.55 1019.27 1019.00 1018.77 1018.58 1018.47 1018.45 1018.52 1018.68 1018.90 1019.17 1019.45 1019.74 1020.00 1020.23 1020.42 1020.58
1019.89 1019.96 1020.07 1020.21 1020.39 1020.61 1020.89 1021.23 1021.66 1022.18 1022.79 1023.45 1024.15 1024.83 1025.44 1025.93 1026.25 1026.37 1026.28 1026.00 1025.57 1025.02 1024.42 1023.80 1023.22 1022.69 1022.22 1021.81 1021.44 1021.09 1020.74 1020.39 1020.02 1019.64 1019.27 1018.94 1018.65 1018.42 1018.28 1018.22 1018.24 1018.34 1018.49 1018.69 1018.91 1019.15 1019.39 1019.62 1019.83
1020.28 1020.21 1020.23 1020.34 1020.54 1020.83 1021.23 1021.73 1022.33 1023.01 1023.75 1024.51 1025.27 1025.97 1026.56 1027.01 1027.27 1027.34 1027.23 1026.94 1026.51 1026.00 1025.43 1024.85 1024.29 1023.76 1023.28 1022.83 1022.39 1021.97 1021.54 1021.09 1020.63 1020.17 1019.72 1019.29 1018.89 1018.55 1018.27 1018.07 1017.94 1017.88 1017.89 1017.97 1018.10 1018.28 1018.50 1018.75 1019.00
1020.85 1020.62 1020.53 1020.58 1020.79 1021.15 1021.67 1022.32 1023.08 1023.92 1024.79 1025.65 1026.44 1027.13 1027.68 1028.05 1028.23 1028.23 1028.06 1027.75 1027.33 1026.85 1026.33 1025.80 1025.29 1024.79 1024.31 1023.84 1023.37 1022.89 1022.39 1021.88 1021.36 1020.83 1020.31 1019.79 1019.31 1018.85 1018.44 1018.09 1017.79 1017.57 1017.42 1017.36 1017.38 1017.47 1017.64 1017.86 1018.11
1021.60 1021.21 1021.00 1020.99 1021.20 1021.62 1022.25 1023.04 1023.95 1024.93 1025.91 1026.84 1027.65 1028.31 1028.79 1029.07 1029.15 1029.05 1028.81 1028.46 1028.04 1027.58 1027.11 1026.64 1026.18 1025.72 1025.26 1024.79 1024.31 1023.79 1023.26 1022.71 1022.15 1021.57 1021.00 1020.43 1019.86 1019.31 1018.78 1018.28 1017.83 1017.44 1017.13 1016.91 1016.79 1016.78 1016.85 1017.01 1017.21
1022.49 1021.97 1021.66 1021.60 1021.81 1022.27 1022.98 1023.88 1024.92 1026.01 1027.08 1028.06 1028.87 1029.49 1029.88 1030.05 1030.02 1029.82 1029.50 1029.10 1028.66 1028.22 1027.79 1027.37 1026.95 1026.54 1026.11 1025.64 1025.15 1024.63 1024.08 1023.51 1022.93 1022.33 1021.73 1021.12 1020.50 1019.87 1019.23 1018.61 1018.01 1017.47 1017.00 1016.63 1016.37 1016.22 1016.19 1016.24 1016.35
1023.47 1022.87 1022.50 1022.41 1022.61 1023.11 1023.88 1024.86 1025.98 1027.15 1028.27 1029.26 1030.05 1030.61 1030.91 1030.97 1030.83 1030.53 1030.13 1029.68 1029.22 1028.79 1028.38 1027.99 1027.62 1027.23 1026.82 1026.38 1025.89 1025.36 1024.81 1024.24 1023.65 1023.06 1022.45 1021.81 1021.16 1020.47 1019.75 1019.02 1018.31 1017.63 1017.02 1016.51 1016.11 1015.83 1015.67 1015.61 1015.61
1024.51 1023.89 1023.51 1023.41 1023.61 1024.13 1024.93 1025.95 1027.10 1028.29 1029.41 1030.39 1031.13 1031.62 1031.83 1031.80 1031.55 1031.17 1030.70 1030.21 1029.73 1029.30 1028.90 1028.54 1028.19 1027.82 1027.42 1026.98 1026.49 1025.97 1025.41 1024.85 1024.27 1023.68 1023.07 1022.43 1021.76 1021.03 1020.26 1019.45 1018.65 1017.87 1017.15 1016.52 1016.01 1015.62 1015.35 1015.16 1015.05
1025.62 1025.03 1024.67 1024.58 1024.79 1025.30 1026.09 1027.09 1028.23 1029.39 1030.47 1031.38 1032.06 1032.46 1032.59 1032.47 1032.15 1031.70 1031.19 1030.67 1030.19 1029.75 1029.37 1029.02 1028.68 1028.31 1027.91 1027.47 1026.97 1026.45 1025.89 1025.33 1024.76 1024.18 1023.58 1022.95 1022.26 1021.51 1020.70 1019.85 1018.99 1018.14 1017.35 1016.65 1016.06 1015.58 1015.22 1014.95 1014.74
Thickness
5704 5708 5709 5704 5689 5675 5683 5698 5708 5716 5723 5732 5736 5736 5734 5734 5733 5736 5754 5762 5762 5760 5758 5756 5754 5752 5751 5749 5748 5747 5745 5744 5743 5741 5740 5739 5738 5737 5736 5735 5734 5733 5732 5731 5730 5729 5728 5727 5726
5697 5700 5697 5686 5672 5666 5680 5698 5706 5716 5725 5730 5733 5735 5734 5736 5744 5747 5752 5757 5759 5757 5755 5753 5751 5750 5748 5747 5745 5744 5742 5741 5740 5739 5738 5736 5735 5734 5733 5732 5731 5730 5729 5728 5727 5725 5724 5723 5722
5689 5690 5681 5670 5664 5671 5688 5702 5708 5717 5722 5726 5726 5730 5732 5735 5741 5745 5751 5754 5755 5753 5752 5750 5748 5747 5745 5744 5742 5741 5740 5738 5737 5736 5735 5734 5733 5731 5730 5729 5728 5727 5726 5724 5723 5722 5721 5720 5718
5677 5673 5666 5660 5666 5679 5692 5703 5706 5710 5716 5720 5721 5721 5729 5736 5739 5744 5749 5750 5750 5749 5748 5746 5745 5744 5742 5740 5739 5737 5736 5735 5734 5733 5731 5730 5729 5728 5727 5726 5724 5723 5722 5721 5720 5718 5717 5716 5714
5664 5658 5652 5652 5665 5679 5688 5697 5702 5705 5709 5713 5714 5715 5722 5731 5738 5742 5744 5745 5744 5744 5743 5742 5741 5740 5738 5737 5735 5734 5733 5732 5731 5729 5728 5727 5726 5725 5723 5722 5721 5719 5718 5717 5716 5715 5713 5712 5710
5647 5645 5640 5647 5663 5675 5684 5692 5697 5699 5701 5706 5708 5709 5717 5725 5731 5734 5737 5738 5739 5739 5738 5737 5737 5736 5734 5733 5731 5730 5729 5728 5727 5726 5725 5724 5722 5721 5720 5718 5717 5716 5714 5713 5712 5711 5709 5707 5706
5636 5636 5637 5646 5655 5667 5680 5687 5689 5691 5694 5699 5704 5703 5710 5718 5724 5728 5730 5731 5732 5732 5733 5732 5732 5731 5730 5729 5727 5726 5725 5724 5723 5721 5720 5719 5718 5717 5715 5714 5713 5712 5710 5709 5708 5706 5705 5703 5702
5631 5628 5631 5636 5647 5660 5673 5680 5686 5687 5690 5697 5700 5697 5702 5712 5718 5721 5722 5723 5724 5725 5726 5727 5727 5726 5725 5723 5722 5721 5720 5719 5718 5717 5715 5714 5713 5712 5711 5710 5709 5707 5706 5704 5703 5702 5700 5698 5697
5624 5617 5623 5633 5641 5654 5665 5670 5676 5683 5684 5689 5694 5699 5704 5709 5711 5712 5713 5714 5716 5718 5719 5721 5721 5720 5720 5718 5717 5716 5715 5714 5713 5712 5710 5709 5708 5707 5706 5705 5704 5703 5701 5700 5698 5696 5695 5693 5692
5610 5609 5623 5634 5640 5647 5654 5660 5665 5670 5673 5678 5685 5692 5697 5701 5703 5704 5706 5707 5709 5711 5713 5715 5715 5715 5714 5713 5711 5710 5709 5709 5708 5707 5706 5704 5703 5702 5701 5700 5699 5698 5696 5695 5693 5691 5690 5688 5686
5602 5607 5618 5626 5633 5639 5644 5650 5656 5659 5663 5672 5678 5683 5688 5691 5694 5698 5700 5703 5704 5706 5707 5708 5709 5709 5709 5707 5706 5705 5704 5703 5702 5702 5701 5700 5698 5697 5696 5695 5694 5692 5691 5689 5687 5686 5684 5682 5681
5593 5602 5609 5616 5623 5628 5632 5638 5643 5651 5661 5671 5676 5680 5682 5683 5687 5691 5694 5696 5698 5699 5701 5702 5703 5703 5703 5702 5701 5699 5699 5698 5697 5696 5696 5695 5693 5692 5691 5690 5688 5687 5686 5684 5682 5680 5678 5677 5675
5583 5591 5599 5606 5612 5617 5622 5625 5632 5642 5654 5660 5666 5669 5673 5677 5681 5685 5688 5691 5692 5693 5695 5696 5697 5697 5697 5696 5695 5694 5693 5693 5692 5691 5690 5690 5689 5687 5685 5684 5683 5682 5680 5679 5677 5675 5673 5671 5669
5576 5581 5586 5594 5600 5607 5610 5616 5621 5635 5643 5649 5654 5659 5664 5669 5673 5676 5680 5683 5686 5688 5690 5691 5691 5691 5691 5691 5690 5689 5688 5687 5686 5686 5685 5684 5683 5682 5680 5679 5677 5676 5675 5673 5672 5670 5668 5665 5663
5568 5568 5574 5582 5589 5595 5600 5602 5612 5624 5630 5636 5642 5648 5655 5660 5665 5670 5675 5678 5681 5683 5685 5686 5686 5686 5686 5686 5685 5684 5683 5682 5681 5680 5679 5678 5678 5677 5675 5673 5672 5670 5669 5668 5666 5664 5662 5660 5657
5555 5553 5555 5571 5578 5585 5584 5587 5606 5613 5618 5625 5631 5637 5644 5651 5657 5663 5667 5671 5674 5676 5678 5680 5681 5680 5680 5680 5679 5679 5677 5676 5675 5674 5673 5673 5672 5671 5669 5668 5666 5665 5663 5662 5660 5658 5656 5653 5651
5537 5536 5544 5557 5569 5574 5574 5578 5595 5602 5608 5614 5621 5626 5633 5640 5648 5654 5660 5664 5667 5670 5672 5673 5675 5675 5674 5674 5673 5672 5671 5670 5669 5668 5668 5667 5666 5665 5664 5662 5660 5659 5657 5655 5654 5651 5649 5646 5644
5529 5531 5536 5545 5558 5563 5564 5570 5585 5591 5596 5602 5609 5616 5622 5630 5639 5646 5652 5656 5660 5663 5665 5666 5667 5668 5668 5667 5665 5664 5663 5663 5662 5662 5661 5661 5660 5659 5658 5656 5654 5652 5651 5648 5647 5644 5642 5639 5637
5526 5528 5530 5541 5552 5555 5556 5563 5576 5582 5584 5589 5596 5604 5612 5621 5629 5636 5642 5647 5650 5654 5656 5659 5659 5660 5660 5660 5659 5658 5656 5656 5655 5655 5655 5654 5654 5653 5651 5650 5648 5646 5644 5642 5640 5637 5634 5631 5630
5519 5520 5524 5535 5546 5549 5548 5555 5567 5573 5576 5581 5586 5593 5601 5610 5618 5625 5631 5636 5641 5645 5648 5651 5652 5653 5654 5656 5655 5654 5651 5649 5649 5648 5648 5647 5647 5646 5645 5643 5641 5640 5638 5635 5633 5631 5627 5624 5622
5513 5515 5519 5524 5534 5539 5541 5548 5558 5566 5569 5573 5578 5585 5591 5600 5606 5613 5620 5626 5632 5636 5640 5644 5645 5647 5647 5648 5647 5645 5643 5641 5640 5641 5640 5640 5640 5640 5639 5638 5636 5634 5632 5630 5628 5626 5623 5618 5614
5505 5516 5519 5521 5519 5518 5528 5530 5547 5553 5559 5564 5569 5575 5581 5589 5597 5604 5610 5616 5622 5628 5632 5635 5638 5639 5640 5640 5640 5640 5639 5637 5636 5635 5634 5633 5633 5633 5632 5631 5629 5627 5626 5624 5622 5620 5617 5614 5609
5503 5512 5512 5513 5511 5510 5518 5519 5534 5542 5547 5555 5560 5565 5573 5580 5588 5595 5602 5608 5614 5618 5622 5626 5629 5631 5632 5633 5634 5633 5632 5631 5629 5627 5627 5626 5625 5625 5624 5624 5622 5621 5619 5617 5615 5612 5610 5608 5604
5501 5502 5504 5500 5500 5501 5512 5514 5521 5526 5538 5546 5552 5557 5564 5571 5579 5587 5593 5599 5604 5608 5612 5616 5619 5622 5623 5625 5626 5626 5625 5623 5621 5620 5618 5617 5617 5617 5617 5616 5614 5613 5612 5610 5608 5605 5603 5601 5598
5491 5489 5487 5487 5485 5496 5509 5510 5515 5527 5533 5538 5543 5549 5555 5562 5569 5576 5583 5589 5594 5598 5602 5606 5610 5613 5615 5616 5618 5619 5618 5616 5616 5614 5612 5610 5609 5609 5608 5608 5606 5605 5604 5603 5601 5598 5596 5593 5590
5482 5483 5480 5480 5482 5490 5498 5503 5513 5523 5527 5531 5535 5540 5546 5552 5558 5566 5572 5578 5583 5587 5592 5596 5600 5603 5606 5607 5609 5609 5609 5608 5608 5607 5605 5604 5603 5602 5600 5600 5598 5597 5596 5595 5593 5591 5588 5586 5583
5475 5475 5477 5472 5471 5474 5482 5493 5508 5518 5521 5524 5527 5532 5537 5542 5549 5556 5562 5567 5572 5577 5582 5586 5589 5593 5595 5597 5599 5599 5600 5600 5599 5598 5596 5595 5594 5593 5592 5591 5590 5588 5587 5586 5584 5582 5580 5578 5575
5472 5470 5466 5464 5467 5473 5481 5488 5497 5504 5508 5514 5517 5521 5528 5534 5539 5546 5552 5558 5563 5567 5571 5575 5579 5582 5584 5587 5588 5589 5589 5590 5589 5588 5587 5586 5585 5584 5583 5582 5580 5579 5578 5577 5576 5574 5572 5569 5566
5462 5462 5461 5457 5460 5465 5473 5487 5492 5492 5497 5500 5503 5508 5515 5521 5527 5534 5540 5546 5551 5556 5559 5563 5567 5569 5571 5574 5576 5577 5578 5578 5578 5578 5577 5577 5576 5575 5574 5573 5571 5570 5569 5567 5566 5564 5563 5560 5558
5457 5455 5454 5457 5453 5454 5461 5475 5486 5485 5487 5489 5492 5499 5505 5511 5516 5522 5528 5534 5539 5544 5548 5552 5555 5557 5559 5561 5563 5564 5565 5566 5567 5567 5566 5566 5566 5565 5564 5563 5562 5561 5559 5557 5556 5555 5553 5551 5549